Location: Alafon
(8.4500°N, 4.2333°E)
Time: 01:45:53
(UTC+00:00)

Meteor 1-21 Rocket - Pass Details

Date: 05 July 2020
Orbit: 833 x 907 km, 81.2° (Epoch: 06 August)

Event Time Altitude Azimuth Distance (km) Brightness Sun altitude
Exits shadow 19:43:45 47° 133° (SE) 1,162 4.4 -22.7°
Maximum altitude 19:44:53 55° 94° (E) 1,066 4.3 -22.9°
Drops below altitude 10° 19:50:36 10° 18° (NNE) 2,574 6.8 -24.2°
Sets 19:53:07 0° 14° (NNE) 3,518 7.6 -24.7°
